sat.trackr.live / text

‹ back to catalog

STARLINK-36423

NORAD 67448 · 2026-008D

PAYLOAD ACTIVE UNKNOWN

§ Identity

Operator
Country
US
Launch date
2026-01-14
Launch site
AFETR
Launch vehicle
Mass (kg)
RCS (m²)

Purposes: comms

External: N2YO · Heavens-Above · Gunter

§ Orbital elements

Epoch: 2026-09-18T23:26:16.294272Z

Period
94.27 min
Inclination
42.9934°
Eccentricity
0.0000270
Mean motion
15.27588787 rev/d
Perigee alt
482.8 km
Apogee alt
483.2 km
Semi-major
6,861.2 km
B*
4.8293e-4
RAAN
193.5883°
Arg perigee
281.2494°
Mean anomaly
78.8328°
Rev number
3,913

§ Raw data

STARLINK-364231 67448U 26008D   26261.97657748  .00013054  00000+0  48293-3 0  99962 67448  42.9934 193.5883 0000270 281.2494  78.8328 15.27588787 39138

JSON: /api/v1/satellites/67448 · /tle

For live sub-satellite position, see the globe view (requires WebGL).

§ Visibility from observer

Set your observer location to see the next 7 days of passes ≥ 10°. The values pass through the URL so the page stays shareable.

No JS? Fill the form by hand. The geolocation button needs JavaScript.